Tracking 35275 objects as of 9-Sep-2026
HD Live streaming from Space Station
objects crossing your sky now

STARLINK-36070

Track STARLINK-36070 now!
10-day predictions
STARLINK-36070 is classified as:


NORAD ID: 66864
Int'l Code: 2025-281S
Launch date: December 2, 2025
Source: United States (US)
Launch site: AIR FORCE EASTERN TEST RANGE (AFETR)
Your satellite tracking list
Your tracking list is empty




NASA's NSSDC Master Catalog

Two Line Element Set (TLE):
1 66864U 25281S   26251.45141873  .00014458  00000-0  53363-3 0  9992
2 66864  43.0024  31.5811 0001487 252.2627 107.8063 15.27595531 44130
Source of the keplerian elements: AFSPC